TimeEEST,TemperatureF,Dew PointF,Humidity,Sea Level PressureIn,VisibilityMPH,Wind Direction,Wind SpeedMPH,Gust SpeedMPH,PrecipitationIn,Events,Conditions,WindDirDegrees,DateUTC
12:50 AM,55.4,44.6,67,30.04,6.2,West,4.6,-,N/A,,Partly Cloudy,260,2012-10-21 21:50:00
1:50 AM,55.4,42.8,63,30.04,6.2,West,6.9,-,N/A,,Partly Cloudy,270,2012-10-21 22:50:00
2:50 AM,55.4,42.8,63,30.04,6.2,West,4.6,-,N/A,,Partly Cloudy,270,2012-10-21 23:50:00
3:50 AM,55.4,44.6,67,30.04,6.2,West,8.1,-,N/A,,Partly Cloudy,260,2012-10-22 00:50:00
4:50 AM,55.4,44.6,67,30.04,6.2,West,6.9,-,N/A,,Partly Cloudy,280,2012-10-22 01:50:00
5:50 AM,55.4,42.8,63,30.04,6.2,West,8.1,-,N/A,,Scattered Clouds,260,2012-10-22 02:50:00
6:20 AM,57.2,44.6,63,30.04,6.2,West,6.9,-,N/A,,Mostly Cloudy,270,2012-10-22 03:20:00
6:50 AM,57.2,46.4,67,30.04,6.2,Calm,Calm,-,N/A,,Mostly Cloudy,0,2012-10-22 03:50:00
7:20 AM,59.0,46.4,63,30.04,6.2,WNW,5.8,-,N/A,,Mostly Cloudy,300,2012-10-22 04:20:00
7:50 AM,59.0,48.2,67,30.04,6.2,WNW,8.1,-,N/A,Rain,Light Rain,300,2012-10-22 04:50:00
8:20 AM,59.0,48.2,67,30.06,6.2,West,8.1,-,N/A,,Scattered Clouds,280,2012-10-22 05:20:00
9:20 AM,60.8,50.0,68,30.06,6.2,WNW,9.2,-,N/A,,Scattered Clouds,300,2012-10-22 06:20:00
9:50 AM,62.6,51.8,68,30.06,6.2,West,8.1,-,N/A,,Mostly Cloudy,280,2012-10-22 06:50:00
10:20 AM,64.4,51.8,64,30.06,6.2,WNW,5.8,-,N/A,,Mostly Cloudy,290,2012-10-22 07:20:00
10:50 AM,66.2,50.0,56,30.06,6.2,West,5.8,-,N/A,,Mostly Cloudy,280,2012-10-22 07:50:00
11:20 AM,69.8,50.0,49,30.04,6.2,West,9.2,-,N/A,,Scattered Clouds,270,2012-10-22 08:20:00
11:50 AM,68.0,50.0,52,30.04,6.2,WNW,6.9,-,N/A,,Scattered Clouds,290,2012-10-22 08:50:00
12:20 PM,69.8,50.0,49,30.04,6.2,NW,5.8,-,N/A,,Mostly Cloudy,320,2012-10-22 09:20:00
12:50 PM,69.8,51.8,53,30.04,6.2,North,6.9,-,N/A,,Mostly Cloudy,350,2012-10-22 09:50:00
1:20 PM,69.8,51.8,53,30.04,6.2,North,4.6,-,N/A,,Mostly Cloudy,360,2012-10-22 10:20:00
1:50 PM,69.8,51.8,53,30.01,6.2,NE,5.8,-,N/A,,Scattered Clouds,40,2012-10-22 10:50:00
2:20 PM,69.8,51.8,53,30.01,6.2,NE,5.8,-,N/A,,Scattered Clouds,50,2012-10-22 11:20:00
2:50 PM,69.8,50.0,49,30.01,6.2,ESE,4.6,-,N/A,,Scattered Clouds,120,2012-10-22 11:50:00
3:20 PM,69.8,50.0,49,30.01,6.2,ENE,11.5,-,N/A,,Mostly Cloudy,60,2012-10-22 12:20:00
3:50 PM,69.8,53.6,56,30.01,6.2,East,9.2,-,N/A,,Mostly Cloudy,80,2012-10-22 12:50:00
4:20 PM,68.0,53.6,60,30.01,6.2,SE,4.6,-,N/A,,Mostly Cloudy,130,2012-10-22 13:20:00
4:50 PM,68.0,53.6,60,30.01,6.2,SSE,4.6,-,N/A,,Mostly Cloudy,150,2012-10-22 13:50:00
5:20 PM,68.0,53.6,60,30.01,6.2,South,4.6,-,N/A,,Mostly Cloudy,190,2012-10-22 14:20:00
5:50 PM,68.0,51.8,56,30.01,6.2,South,4.6,-,N/A,,Mostly Cloudy,180,2012-10-22 14:50:00
6:20 PM,68.0,51.8,56,30.01,6.2,Calm,Calm,-,N/A,,Mostly Cloudy,0,2012-10-22 15:20:00
6:50 PM,66.2,51.8,60,30.01,6.2,South,4.6,-,N/A,,Mostly Cloudy,170,2012-10-22 15:50:00
7:20 PM,66.2,51.8,60,30.01,6.2,Calm,Calm,-,N/A,,Mostly Cloudy,0,2012-10-22 16:20:00
7:50 PM,64.4,53.6,68,30.01,6.2,South,4.6,-,N/A,,Mostly Cloudy,190,2012-10-22 16:50:00
8:20 PM,66.2,53.6,64,30.01,6.2,Calm,Calm,-,N/A,,Mostly Cloudy,0,2012-10-22 17:20:00
8:50 PM,64.4,51.8,64,30.01,6.2,Calm,Calm,-,N/A,,Mostly Cloudy,0,2012-10-22 17:50:00
9:50 PM,62.6,50.0,63,30.01,6.2,WSW,4.6,-,N/A,,Mostly Cloudy,250,2012-10-22 18:50:00
10:50 PM,60.8,50.0,68,30.01,6.2,SW,4.6,-,N/A,,Scattered Clouds,230,2012-10-22 19:50:00
11:50 PM,59.0,48.2,67,30.04,6.2,WSW,4.6,-,N/A,,Mostly Cloudy,240,2012-10-22 20:50:00